Home   Weather   Ibiza   Past weeks
Flag for Spain

Past Weather in Ibiza, Ibiza, Spain — Yesterday and Last 2 Weeks

Now
61 °F

Clear.


Feels Like: 61 °F
Forecast: 72 / 60 °F
Wind: 3 mph from Northwest

Location: Ibiza / Es Codola

Current Time: May 20, 2019 at 4:37:58 am

Latest Report: May 20, 2019 at 3:30 am


Visibility: 10 mi

Pressure: 29.86 "Hg

Humidity: 72%

Dew Point: 52 °F

Location of IbizaLocation

Past Weather in Ibiza — Graph

°F

Ibiza Temperature Yesterday

Maximum temperature yesterday: 73 °F (at 1:30 pm)
Minimum temperature yesterday: 54 °F (at 6:00 am)
Average temperature yesterday: 64 °F

High & Low Weather Summary for the Past Weeks

 TemperatureHumidityPressure
High82 °F (May 11, 1:30 pm)94% (May 6, 4:30 am)30.24 "Hg (May 6, 4:30 am)
Low50 °F (May 6, 5:00 am)29% (May 17, 4:00 pm)29.56 "Hg (May 17, 6:00 am)
Average65 °F69%29.96 "Hg
* Reported May 5 3:00 am — May 20 3:30 am, Ibiza. Weather by CustomWeather, © 2019

Note: Actual official high and low records may vary slightly from our data, if they occured in-between our weather recording intervals... More about our weather records

Advertising

Ibiza Weather History for the Previous 24 Hours

Scroll right to see more
 ConditionsComfort  
Time TempWeatherWind HumidityBarometerVisibility
3:30 am
Mon, May 20
61 °FClear.3 mph72%29.86 "Hg10 mi
3:00 am61 °FClear.5 mph72%29.89 "Hg10 mi
2:30 am61 °FClear.5 mph83%29.89 "Hg10 mi
2:00 am63 °FPassing clouds.3 mph83%29.89 "HgN/A
1:30 am63 °FPassing clouds.5 mph83%29.89 "HgN/A
1:00 am64 °FPassing clouds.2 mph78%29.89 "HgN/A
12:30 am64 °FPassing clouds.6 mph78%29.89 "HgN/A
12:00 am64 °FClear.6 mph78%29.89 "Hg10 mi
11:30 pm
Sun, May 19
64 °FPassing clouds.8 mph78%29.89 "HgN/A
11:00 pm64 °FClear.8 mph78%29.89 "Hg10 mi
10:30 pm64 °FClear.8 mph78%29.89 "Hg10 mi
10:00 pm63 °FClear.7 mph83%29.86 "Hg10 mi
9:30 pm64 °FClear.7 mph73%29.86 "Hg10 mi
9:00 pm64 °FPassing clouds.6 mph73%29.86 "HgN/A
8:30 pm66 °FPassing clouds.7 mph68%29.86 "HgN/A
8:00 pm66 °FPassing clouds.8 mph64%29.83 "HgN/A
7:30 pm66 °FPassing clouds.9 mph60%29.83 "HgN/A
7:00 pm68 °FPassing clouds.9 mph53%29.83 "HgN/A
6:30 pm68 °FPassing clouds.12 mph46%29.83 "HgN/A
6:00 pm68 °FPassing clouds.12 mph46%29.83 "HgN/A
5:30 pm68 °FSunny.14 mph46%29.83 "Hg10 mi
5:00 pm68 °FPassing clouds.13 mph49%29.83 "HgN/A
4:30 pm68 °FPassing clouds.14 mph53%29.83 "HgN/A
4:00 pm70 °FPassing clouds.16 mph50%29.83 "HgN/A
3:30 pm70 °FPassing clouds.16 mph40%29.83 "HgN/A
3:00 pm70 °FPassing clouds.13 mph46%29.83 "HgN/A
2:30 pm72 °FSunny.8 mph41%29.83 "Hg10 mi
2:00 pm72 °FPassing clouds.12 mph36%29.83 "HgN/A
1:30 pm73 °FPassing clouds.13 mph31%29.83 "HgN/A
1:00 pm70 °FPassing clouds.15 mph40%29.83 "HgN/A
12:30 pm72 °FPassing clouds.14 mph36%29.83 "HgN/A
12:00 pm70 °FPassing clouds.10 mph40%29.83 "HgN/A
11:30 am68 °FPassing clouds.9 mph49%29.83 "HgN/A
11:00 am66 °FPassing clouds.9 mph52%29.83 "HgN/A
10:30 am66 °FPassing clouds.7 mph52%29.83 "HgN/A
10:00 am66 °FPassing clouds.2 mph46%29.83 "HgN/A
9:30 am66 °FPassing clouds.5 mph46%29.83 "HgN/A
9:00 am63 °FPassing clouds.3 mph56%29.83 "HgN/A
8:30 am63 °FPassing clouds.3 mph59%29.83 "HgN/A
8:00 am63 °FPassing clouds.2 mph59%29.83 "HgN/A
7:30 am61 °FPassing clouds.3 mph68%29.80 "HgN/A
7:00 am57 °FPassing clouds.3 mph72%29.80 "HgN/A
6:30 am55 °FPassing clouds.6 mph88%29.80 "HgN/A
6:00 am54 °FClear.1 mph94%29.80 "Hg10 mi
5:30 am55 °FClear.5 mph88%29.80 "Hg10 mi
5:00 am57 °FClear.1 mph88%29.80 "Hg10 mi
4:30 am57 °FPassing clouds.1 mph88%29.80 "HgN/A
4:00 am57 °FPassing clouds.5 mph88%29.80 "HgN/A
Weather by CustomWeather, © 2019

See weather overview